Regional Weather Roundup
Issued by NWS

Home | Current Version | Previous Version | Graphics & Text | Print | Product List | Glossary On
Versions: 1 2 3 4 5 6 7 8 9 10 11 12 13 14 15 16 17 18 19 20 21 22 23 24 25 26 27
000
ASUS45 KPSR 260310
RWRAZ

ARIZONA HOURLY REGIONAL WEATHER ROUNDUP
NATIONAL WEATHER SERVICE PHOENIX AZ
800 PM MST MON JUL 25 2016

NOTE: FAIR INDICATES FEW OR NO CLOUDS BELOW 12,000 FEET WITH NO
SIGNIFICANT WEATHER AND/OR OBSTRUCTIONS TO VISIBILITY.

AZZ001>003-036-260400-
NORTHWEST ARIZONA

CITY           SKY/WX    TMP DP  RH WIND       PRES   REMARKS
BULLHEAD CITY  CLEAR    108  48  13 S8        29.72R HX 104
KINGMAN        PTCLDY    84  56  38 E28       29.99S
$$

AZZ004>008-015-016-018-260400-
NORTH CENTRAL ARIZONA

CITY           SKY/WX    TMP DP  RH WIND       PRES   REMARKS
GRAND CANYON   CLOUDY    71  47  42 CALM      30.32R
WILLIAMS       CLOUDY    61  54  77 CALM      30.39S
PRESCOTT       TSTM      67  61  81 S8        30.18F
FLAGSTAFF      CLOUDY    58  56  93 NE6       30.34F
PAYSON         CLOUDY    72  61  68 CALM      30.19R
PAGE           CLOUDY    94  45  18 CALM      30.03R
$$

AZZ009>014-017-260400-
NORTHEAST ARIZONA

CITY           SKY/WX    TMP DP  RH WIND       PRES   REMARKS
WINSLOW        CLOUDY    82  48  30 VRB3      30.16R
SAINT JOHNS    CLOUDY    78  50  37 NE9       30.21R
WINDOW ROCK    CLOUDY    70  53  54 CALM      30.29F
SHOW LOW       CLOUDY    73  50  43 CALM      30.28R
$$

AZZ023-260400-
GREATER PHOENIX AREA

CITY           SKY/WX    TMP DP  RH WIND       PRES   REMARKS
PHOENIX        PTCLDY   100  57  23 N13       29.79R
BUCKEYE        PTCLDY    99  55  23 N17G31    29.82R
GLENDALE       PTCLDY    99  57  25 NW14      29.83R
LUKE AFB       CLEAR     96  59  28 N9        29.81R
DEER VALLEY    CLEAR     96  53  23 N18G24    29.83R
SCOTTSDALE     CLEAR     98  54  22 N10       29.84R
MESA-GATEWAY   MOCLDY    99  55  23 N23       29.82S
CHANDLER       PTCLDY   102  55  21 N15       29.80R HX 101
$$

AZZ027-028-260400-
SOUTHWEST MARICOPA COUNTY AND PINAL COUNTY

CITY           SKY/WX    TMP DP  RH WIND       PRES   REMARKS
CASA GRANDE    CLEAR    100  57  23 NW5       29.84S
GILA BEND      MOCLDY   104  52  17 SW5       29.76S HX 102
$$

AZZ503-504-507>509-260400-
SOUTHEAST ARIZONA

CITY           SKY/WX    TMP DP  RH WIND       PRES   REMARKS
TUCSON         CLEAR     97  56  25 N13       29.93R
DAVIS-MONTHAN  MOCLDY    96  57  27 NW15      29.92R
NOGALES        CLEAR     90  55  30 NW5       30.03R
SIERRA VISTA   CLEAR     84  54  34 S5        30.12R
DOUGLAS        CLEAR     81  66  60 N7        30.05R
SAFFORD        PTCLDY    93  55  27 NW8       29.93R
$$

AZZ020-021-025-026-031-260400-
SOUTHWEST ARIZONA

CITY           SKY/WX    TMP DP  RH WIND       PRES   REMARKS
YUMA           PTCLDY    98  64  32 S15       29.75  HX 100
$$

CAZ031-033-041-043-047-048-061-260400-
SOUTHERN CALIFORNIA

CITY           SKY/WX    TMP DP  RH WIND       PRES   REMARKS
DOWNTOWN L.A.  CLEAR     77  60  55 VRB5      29.88R
L.A. AIRPORT   PTCLDY    72  66  81 W10       29.89R
SAN DIEGO      PTCLDY    69  65  86 W6        29.91R
BURBANK        CLEAR     79  56  45 S9        29.88R
ONTARIO        MOCLDY    84  52  33 W9        29.89R
RIVERSIDE      MOCLDY    88  42  20 W6        29.88R
PALM SPRINGS   PTCLDY   103  50  17 W7        29.75R HX 100
EL CENTRO NAS  PTCLDY   103  63  27 S14       29.72R HX 105
IMPERIAL       CLEAR    105  67  29 SE12      29.70R HX 111
BLYTHE         CLEAR    107  58  20 SW16      29.72R HX 107
NEEDLES        MOCLDY   110  54  15 S9        29.75R HX 108
$$

NVZ020-UTZ003-260400-
SOUTHERN NEVADA-UTAH

CITY           SKY/WX    TMP DP  RH WIND       PRES   REMARKS
LAS VEGAS      PTCLDY   105  35   9 SW6       29.78R
SALT LAKE CITY PTCLDY    90  37  15 N5        29.97F
$$

NMZ009-TXZ055-260400-
NEW MEXICO-WEST TEXAS

CITY           SKY/WX    TMP DP  RH WIND       PRES   REMARKS
ALBUQUERQUE    CLOUDY    80  52  37 N5        30.22R
EL PASO        PTCLDY    94  45  18 E9        29.99R
$$


........................KEY........................
SKY/WX - SKY CONDITION/WEATHER
TMP    - TEMPERATURE IN FAHRENHEIT
DP     - DEW POINT IN FAHRENHEIT
RH     - RELATIVE HUMIDITY IN PERCENT
WIND   - DIRECTION AND SPEED IN MILES PER HOUR (MPH)
VRB    - VARIABLE WIND DIRECTION
PRES   - MEAN SEA LEVEL PRESSURE IN INCHES OF MERCURY
         F - FALLING PRESSURE   R - RISING PRESSURE
         S - STEADY PRESSURE
VSB    - VISIBILITY IN MILES
HX     - HEAT INDEX IN FAHRENHEIT
WCI    - WIND CHILL INDEX IN FAHRENHEIT
TC     - TEMPERATURE IN CELSIUS WHICH IS ALSO KNOWN AS
         TEMPERATURE IN CENTIGRADE
AFB    - AIR FORCE BASE
         LUKE AFB IS LUKE AIR FORCE BASE
         DAVIS-MONTHAN IS DAVIS-MONTHAN AIR FORCE BASE
NAS    - NAVAL AIR STATION
         EL CENTRO NAS IS EL CENTRO NAVAL AIR STATION
N/A    - NOT AVAILABLE





USA.gov is the U.S. government's official web portal to all federal, state and local government web resources and services.